NOAA 16 DEB, 42391

Orbit data source: Space-Track

NOAA 16 DEB, 42391 is space debris in SSO originally from a launch on Thu, 21 Sep 2000 UTC launched from the Air Force Western Test Range (AFWTR). Debris objects in space refer to the collection of defunct objects orbiting the Earth. Examples of debris include non-operational satellites, rocket bodies, and fragments generated from explosions, collisions, or faulty payload assembly.

Loading next visibility...
Identifier
42391, 2000-055SK
Orbit
SSO
Country
Flag of USUS
Related business
Manufacturer
Unknown
Mission
Spacecraft
Bus & Motor
Unknown
Mass
Unknown
Launch date (UTC)
2000-09-21 (25 years ago)
Launch vehicle
Unknown
Launch site
Air Force Western Test Range (AFWTR)
Object type
Payload
Rocket body
Debris
Shape & HBR
Unknown shape, 0.1 m
Radar Cross Section
Small (<0.1 m²)

Expand to show TLE details & history
Last TLE update: 1 day ago

TLE from 1 day ago
0 NOAA 16 DEB
1 42391U 00055SK  25300.65707530  .00057366  00000-0  62899-2 0  9995
2 42391  99.0116 186.7232 0015502  36.5792 323.6476 14.87377354504819
Epoch: 2025-10-27T15:46Z
TLE epoch observation values (Epoch: 2025-10-27T15:46:11.305Z)
Latitude
-0.00005°
Longitude
-86.07967°
Altitude
600.414 km
Speed
7.564 km/s
True Right ascension
12h 26m 53s
True Declination
0° 00' 00"
Sunlit
Object was in daylight at epoch
Visualization orbit readout
Latitude
Unknown
Longitude
Unknown
Altitude
Unknown
Speed
Unknown
Apparent Right ascension
Unknown
Apparent Declination
Unknown
Sunlit
N/A
Visualization observer readout
Local Sidereal Time
16:08:01
Azimuth
Unknown
Elevation
Unknown
Doppler factor
Unknown
Orbital elements
Apogee altitude
614.041 km
Perigee altitude
592.396 km
Semi-major axis
6,981.355 km
Eccentricity
0.00155
Inclination
99.0116°
RAAN
186.7232°
Arg. of periapsis
36.5792°
True anomaly
323.54214°
Mean anomaly
323.6476°
Eccentric anomaly
323.59489°
Mean motion
3.72078 °/min
Orbital period
96.75 mins
BSTAR
0.0062899
Loading maneuver chart data...
Computing Atmospheric mass density...
Loading historical data...
Loading historical data...
Loading historical data...
Loading historical data...
Loading historical data...
Loading historical data...
Loading historical data...

Documentation

Showing up to 5 results
|